Location: Newark
(13.8117°N, 3.6025°W)
Time: 18:41:03
(UTC+00:00)

Vanguard 2 - Pass Details

Date: 29 August 2019
Orbit: 554 x 2937 km, 32.9° (Epoch: 15 September)

Event Time Altitude Azimuth Distance (km) Brightness Sun altitude
Rises 11:24:37 0° 303° (WNW) 2,790 10.3 76.8°
Reaches altitude 10° 11:29:02 10° 348° (NNW) 2,141 9.9 77.8°
Maximum altitude 11:29:48 10° 358° (N) 2,177 10.0 78.0°
Drops below altitude 10° 11:30:37 10° 7° (N) 2,264 10.1 78.2°
Sets 11:36:25 0° 48° (NE) 3,760 11.1 79.5°
